Regional Weather Roundup
Issued by NWS

Home | Current Version | Previous Version | Graphics & Text | Print | Product List | Glossary On
Versions: 1 2 3 4 5 6 7 8 9 10 11 12 13 14 15 16 17 18 19 20 21 22 23 24 25 26 27 28 29 30 31 32 33 34 35 36 37 38 39 40 41 42 43 44 45 46 47 48 49 50
000
ASUS43 KFSD 012102
RWRSD

WEATHER ROUNDUP FOR SOUTH DAKOTA
NATIONAL WEATHER SERVICE SIOUX FALLS SD
400 PM CDT TUE SEP 01 2015

NOTE: "FAIR" INDICATES FEW OR NO CLOUDS BELOW 12,000 FEET WITH NO
SIGNIFICANT WEATHER AND/OR OBSTRUCTIONS TO VISIBILITY.


SDZ001>005-009-010-012>017-012200-
NORTHWEST AND NORTH CENTRAL SOUTH DAKOTA

CITY           SKY/WX    TMP DP  RH WIND       PRES   REMARKS
BUFFALO          N/A     87  59  38 VRB3      29.77F
FAITH            N/A     87  54  32 VRB7      29.80F
MOBRIDGE       SUNNY     90  67  46 S14       29.76F
$$

SDZ012>016-024>037-041>051-057-063-072>074-012200-
SOUTHWEST AND SOUTH CENTRAL SOUTH DAKOTA

CITY           SKY/WX    TMP DP  RH WIND       PRES   REMARKS
RAPID CTY ARPT SUNNY     85  61  44 N8        29.85F
PIERRE         SUNNY     93  61  34 S20G28    29.76F
CUSTER         SUNNY     82  30  15 W16G26    30.02S
ELLSWORTH AFB  SUNNY     85  55  34 VRB3      29.85F
PHILIP         SUNNY     94  53  25 S12G20    29.76F
PINE RIDGE     SUNNY     94  36  13 W14G21    29.86F
WINNER         FAIR      89  57  33 SE20G28   29.84R
$$

SDZ004>011-016>023-039-040-012200-
NORTHEAST SOUTH DAKOTA

CITY           SKY/WX    TMP DP  RH WIND       PRES   REMARKS
ABERDEEN       MOSUNNY   85  71  63 S14       29.82R
WATERTOWN      CLOUDY    80  67  64 SW5       29.85S
BROOKINGS      CLOUDY    77  66  69 SE10      29.88R
$$

SDZ017-020-022-023-036>040-048>070-012200-
SOUTHEAST SOUTH DAKOTA

CITY           SKY/WX    TMP DP  RH WIND       PRES   REMARKS
SIOUX FALLS    CLOUDY    78  69  73 SE10      29.87F
HURON          CLOUDY    83  69  62 SE13G22   29.82F
CHAMBERLAIN    SUNNY     84  64  51 SE16      29.83S
MITCHELL       CLOUDY    79  74  84 E7        29.82F
YANKTON        CLOUDY    81  70  69 SE7       29.83F
$$

ABBREVIATIONS USED IN REMARKS
   TC - TEMPERATURE IN CELSIUS
  WCI - WIND CHILL INDEX
   HX - HEAT INDEX
  VSB - VISIBILITY



USA.gov is the U.S. government's official web portal to all federal, state and local government web resources and services.